Temp
35 35 35 34 34 34 34 33 33 32 31 31 29 30 30 30 31 30 30 29 29 29 29 29 29 28 28 28 28 28 28 27 27 28 27 27 27 26 25 26 26 26
34 34 34 34 34 34 33 33 32 32 31 30 29 29 29 30 30 30 29 29 29 28 29 28 28 28 28 27 27 27 27 27 26 28 27 26 26 26 25 25 25 26
35 34 33 32 32 33 33 32 31 31 31 29 29 28 27 29 28 29 29 28 28 28 28 27 27 27 26 27 27 26 26 26 25 27 26 26 26 26 26 26 26 25
35 34 33 33 33 33 33 31 30 30 30 28 27 27 27 27 27 27 28 27 27 27 27 27 27 27 26 26 25 25 26 26 26 26 25 26 26 26 26 27 26 26
35 34 33 33 33 33 32 31 30 29 27 27 27 26 25 25 25 25 26 27 27 26 26 26 26 26 26 26 26 24 25 24 25 25 24 23 25 24 24 25 22 22
35 35 34 33 32 32 31 30 30 29 27 26 26 26 25 25 25 24 25 25 26 26 25 26 25 26 26 26 25 25 24 24 25 24 23 23 24 25 24 22 21 20
34 34 33 33 32 32 30 30 29 28 26 26 26 24 24 23 23 23 24 24 25 25 25 25 24 24 25 25 24 24 24 24 24 23 22 23 23 23 23 21 20 20
35 35 34 33 31 30 30 29 28 26 25 25 24 24 24 23 23 23 23 23 24 24 24 24 24 24 25 25 23 22 22 23 22 22 21 21 21 22 22 21 20 19
35 33 32 31 30 29 28 27 26 25 25 23 22 22 23 22 22 22 22 23 23 23 23 23 24 24 24 22 22 21 21 21 21 21 20 20 20 21 21 20 20 18
33 31 29 28 27 26 26 26 25 24 23 23 22 22 21 22 22 21 21 21 21 21 22 22 22 22 22 22 21 21 19 19 20 20 19 18 19 19 20 20 19 18
34 31 28 27 26 25 25 25 24 23 23 22 22 21 21 21 20 21 21 21 20 20 20 21 21 21 21 21 21 21 20 18 17 16 16 17 18 19 19 19 19 18
34 32 28 27 26 25 24 24 24 23 22 21 21 20 21 20 19 19 19 19 20 20 21 21 21 21 21 20 20 20 20 18 16 16 16 16 16 17 17 18 18 18
34 33 31 28 26 25 24 23 23 22 22 20 20 20 19 19 18 19 20 19 19 20 19 19 19 19 19 20 20 19 17 15 15 15 16 16 16 16 16 17 17 17
34 33 32 29 26 24 23 22 21 22 21 21 20 18 18 17 17 18 19 20 19 19 19 19 18 18 19 19 17 17 15 14 14 14 14 15 15 16 16 16 17 17
34 33 32 30 27 24 22 21 21 20 20 19 19 17 18 17 18 17 17 17 18 18 17 17 16 16 17 16 15 14 14 13 13 13 13 13 14 15 16 16 16 16
34 33 31 29 27 24 22 21 20 19 18 18 18 17 17 17 16 17 16 15 15 15 15 15 15 15 17 18 18 14 12 12 12 13 13 13 13 14 15 15 15 15
33 32 30 28 26 24 22 20 19 18 17 16 16 16 15 15 15 14 14 15 14 13 13 14 14 14 17 18 18 18 14 11 11 12 12 12 12 13 13 14 15 15
32 31 30 27 25 24 22 19 18 17 16 15 15 15 14 14 14 13 13 14 13 13 12 13 13 15 17 18 18 19 18 14 12 11 11 12 12 12 13 13 14 14
31 30 28 26 24 22 20 18 16 16 15 14 13 14 14 13 13 13 12 13 12 11 11 12 11 15 17 18 18 18 19 18 15 12 12 12 12 12 12 13 14 14
30 29 25 23 23 21 19 17 15 14 14 14 14 14 12 12 12 12 12 11 11 10 10 10 10 13 16 17 18 18 19 18 15 15 12 13 13 13 14 14 14 14
29 26 24 24 22 20 17 16 14 14 13 13 13 12 11 11 11 10 10 10 10 10 9 9 9 14 15 16 17 18 18 18 15 15 15 14 14 14 15 15 16 16
27 25 24 23 21 18 16 15 14 13 12 13 12 12 12 12 12 11 10 9 9 9 8 7 8 14 15 16 17 17 18 15 15 14 14 15 15 16 16 17 17 17
26 24 22 21 21 18 15 14 13 13 13 13 11 11 11 10 10 10 11 9 8 8 7 7 8 11 14 15 16 17 16 14 14 14 14 14 15 16 17 18 18 19
24 23 21 21 20 18 16 15 14 13 12 12 11 10 10 10 10 10 10 9 8 8 7 6 7 10 13 14 15 16 16 13 13 13 13 13 14 16 17 18 19 21
23 22 21 20 19 19 17 14 13 12 12 11 11 10 10 10 10 9 8 9 8 7 9 7 6 8 12 13 15 15 15 13 13 13 12 13 14 16 17 19 20 21
21 20 20 19 18 18 17 15 15 13 11 10 10 10 10 10 9 8 7 8 8 7 6 7 6 6 8 12 13 15 16 14 14 13 12 13 15 16 17 18 20 21
MSLP
1018.52 1018.40 1018.28 1018.20 1018.12 1018.08 1018.12 1018.20 1018.28 1018.44 1018.48 1018.68 1018.92 1019.16 1019.48 1019.76 1020.04 1020.28 1020.52 1020.76 1020.92 1021.08 1021.16 1021.24 1021.32 1021.40 1021.48 1021.52 1021.64 1021.76 1021.72 1021.76 1021.84 1021.76 1021.80 1021.84 1021.80 1021.84 1021.92 1021.92 1021.96 1021.84
1017.88 1017.92 1017.80 1017.76 1017.64 1017.60 1017.64 1017.68 1017.80 1017.88 1017.96 1018.12 1018.36 1018.72 1019.08 1019.40 1019.68 1019.88 1020.08 1020.28 1020.52 1020.68 1020.80 1020.92 1021.00 1021.08 1021.12 1021.16 1021.20 1021.36 1021.36 1021.36 1021.44 1021.40 1021.44 1021.48 1021.44 1021.48 1021.56 1021.64 1021.68 1021.64
1017.48 1017.40 1017.32 1017.16 1016.96 1016.92 1017.08 1017.28 1017.44 1017.52 1017.52 1017.60 1017.92 1018.28 1018.68 1019.04 1019.32 1019.48 1019.72 1019.92 1020.12 1020.28 1020.44 1020.56 1020.64 1020.68 1020.76 1020.76 1020.80 1020.96 1020.96 1021.00 1021.12 1021.08 1021.16 1021.16 1021.12 1021.04 1021.08 1021.24 1021.28 1021.36
1017.00 1016.92 1016.80 1016.72 1016.72 1016.64 1016.68 1016.88 1016.96 1017.16 1017.24 1017.32 1017.40 1017.80 1018.24 1018.64 1018.92 1019.16 1019.28 1019.56 1019.76 1019.88 1020.04 1020.16 1020.20 1020.32 1020.36 1020.44 1020.56 1020.52 1020.60 1020.72 1020.76 1020.84 1020.88 1020.88 1020.84 1020.84 1020.80 1020.80 1020.88 1020.96
1016.48 1016.48 1016.44 1016.40 1016.36 1016.40 1016.40 1016.36 1016.44 1016.56 1016.80 1016.80 1017.04 1017.36 1017.80 1018.20 1018.56 1018.72 1018.92 1019.12 1019.36 1019.56 1019.68 1019.76 1019.84 1019.84 1019.92 1019.96 1020.04 1020.16 1020.24 1020.40 1020.48 1020.60 1020.56 1020.60 1020.60 1020.60 1020.60 1020.60 1020.68 1020.80
1015.96 1015.92 1015.88 1015.92 1015.88 1016.00 1016.04 1015.92 1015.96 1016.12 1016.36 1016.56 1016.64 1016.96 1017.28 1017.68 1018.04 1018.28 1018.48 1018.68 1018.84 1019.08 1019.24 1019.36 1019.44 1019.44 1019.52 1019.48 1019.56 1019.60 1019.76 1019.92 1020.00 1020.24 1020.28 1020.28 1020.24 1020.24 1020.36 1020.40 1020.48 1020.68
1015.16 1015.12 1015.08 1015.20 1015.32 1015.44 1015.52 1015.48 1015.68 1015.88 1016.08 1016.24 1016.48 1016.64 1016.92 1017.24 1017.56 1017.80 1018.04 1018.24 1018.44 1018.60 1018.76 1018.92 1019.00 1019.08 1019.08 1019.12 1019.12 1019.16 1019.28 1019.48 1019.68 1019.84 1019.96 1019.92 1019.88 1019.88 1019.96 1020.12 1020.28 1020.32
1014.60 1014.48 1014.44 1014.48 1014.60 1014.72 1014.80 1014.92 1015.20 1015.56 1015.84 1016.16 1016.24 1016.36 1016.48 1016.76 1017.08 1017.40 1017.64 1017.88 1018.04 1018.16 1018.36 1018.48 1018.56 1018.68 1018.72 1018.72 1018.80 1018.88 1019.00 1019.16 1019.36 1019.56 1019.68 1019.68 1019.60 1019.60 1019.60 1019.64 1019.88 1020.04
1014.20 1014.20 1014.24 1014.24 1014.24 1014.12 1014.16 1014.20 1014.48 1014.84 1015.16 1015.52 1015.84 1016.08 1016.16 1016.36 1016.64 1016.96 1017.24 1017.52 1017.68 1017.84 1018.00 1018.12 1018.20 1018.28 1018.32 1018.40 1018.48 1018.56 1018.68 1018.80 1018.96 1019.16 1019.24 1019.28 1019.28 1019.24 1019.28 1019.32 1019.44 1019.68
1013.84 1013.88 1013.96 1014.00 1014.04 1013.88 1013.88 1013.92 1014.08 1014.28 1014.48 1014.76 1015.12 1015.48 1015.72 1015.88 1016.20 1016.48 1016.80 1017.12 1017.32 1017.52 1017.64 1017.76 1017.84 1017.88 1018.00 1018.08 1018.20 1018.32 1018.44 1018.52 1018.60 1018.72 1018.84 1018.88 1018.88 1018.80 1018.76 1018.84 1018.96 1019.28
1013.40 1013.44 1013.56 1013.48 1013.40 1013.40 1013.40 1013.60 1013.84 1014.08 1014.20 1014.32 1014.56 1014.84 1015.08 1015.36 1015.68 1015.92 1016.16 1016.52 1016.80 1017.00 1017.20 1017.36 1017.44 1017.52 1017.60 1017.68 1017.76 1017.88 1018.04 1018.20 1018.36 1018.52 1018.60 1018.68 1018.64 1018.60 1018.60 1018.56 1018.64 1018.76
1013.00 1013.00 1013.08 1013.00 1012.92 1012.92 1013.00 1013.16 1013.36 1013.60 1013.76 1014.00 1014.12 1014.28 1014.52 1014.72 1015.04 1015.32 1015.52 1015.84 1016.16 1016.44 1016.60 1016.80 1016.92 1017.00 1017.12 1017.16 1017.28 1017.44 1017.56 1017.72 1017.92 1018.12 1018.24 1018.40 1018.44 1018.44 1018.36 1018.32 1018.36 1018.40
1012.56 1012.48 1012.36 1012.40 1012.40 1012.40 1012.52 1012.72 1012.88 1013.08 1013.32 1013.48 1013.68 1013.92 1014.04 1014.28 1014.56 1014.80 1014.92 1015.28 1015.60 1015.88 1016.08 1016.24 1016.44 1016.52 1016.60 1016.68 1016.80 1016.96 1017.16 1017.40 1017.60 1017.68 1017.80 1017.88 1017.92 1018.00 1018.04 1018.08 1018.08 1018.12
1012.08 1012.00 1011.92 1011.80 1011.88 1012.04 1012.16 1012.24 1012.40 1012.60 1012.84 1013.08 1013.40 1013.64 1013.76 1013.88 1014.08 1014.28 1014.48 1014.80 1015.08 1015.40 1015.60 1015.84 1015.96 1016.04 1016.08 1016.20 1016.36 1016.56 1016.84 1017.08 1017.24 1017.36 1017.48 1017.48 1017.44 1017.44 1017.48 1017.48 1017.56 1017.64
1011.64 1011.56 1011.52 1011.48 1011.56 1011.68 1011.84 1011.92 1012.04 1012.20 1012.44 1012.72 1013.00 1013.20 1013.44 1013.60 1013.80 1014.00 1014.20 1014.44 1014.68 1014.96 1015.24 1015.40 1015.52 1015.56 1015.60 1015.76 1015.96 1016.32 1016.56 1016.80 1016.92 1016.96 1017.00 1017.04 1017.08 1017.04 1017.00 1017.04 1017.08 1017.16
1011.20 1011.12 1011.08 1011.08 1011.20 1011.28 1011.36 1011.52 1011.72 1011.88 1012.08 1012.28 1012.52 1012.72 1013.04 1013.32 1013.52 1013.68 1013.88 1014.08 1014.36 1014.60 1014.84 1015.04 1015.12 1015.12 1015.16 1015.36 1015.52 1015.84 1016.32 1016.52 1016.60 1016.60 1016.64 1016.64 1016.68 1016.64 1016.52 1016.52 1016.60 1016.72
1010.80 1010.64 1010.68 1010.76 1010.72 1010.76 1010.92 1011.08 1011.28 1011.44 1011.64 1011.88 1012.12 1012.40 1012.64 1012.92 1013.16 1013.40 1013.52 1013.72 1014.00 1014.28 1014.44 1014.60 1014.72 1014.76 1014.88 1015.04 1015.08 1015.24 1015.64 1016.08 1016.16 1016.20 1016.20 1016.28 1016.32 1016.28 1016.16 1016.08 1016.12 1016.28
1010.60 1010.36 1010.28 1010.36 1010.44 1010.44 1010.48 1010.60 1010.84 1011.12 1011.32 1011.48 1011.76 1012.08 1012.32 1012.56 1012.76 1012.92 1013.12 1013.32 1013.60 1013.84 1014.08 1014.20 1014.36 1014.52 1014.64 1014.64 1014.64 1014.68 1014.76 1015.12 1015.48 1015.60 1015.72 1015.84 1015.96 1015.96 1015.92 1015.84 1015.80 1015.80
1010.24 1010.16 1010.04 1010.04 1010.12 1010.16 1010.20 1010.36 1010.56 1010.76 1011.00 1011.20 1011.32 1011.52 1011.92 1012.16 1012.28 1012.56 1012.72 1012.92 1013.20 1013.40 1013.60 1013.80 1013.96 1014.12 1014.20 1014.20 1014.16 1014.20 1014.24 1014.28 1014.44 1014.80 1014.96 1015.04 1015.20 1015.40 1015.52 1015.48 1015.36 1015.24
1009.88 1009.84 1009.92 1009.72 1009.72 1009.84 1010.00 1010.12 1010.28 1010.44 1010.56 1010.68 1010.92 1011.20 1011.40 1011.72 1012.00 1012.16 1012.32 1012.52 1012.76 1013.00 1013.24 1013.40 1013.56 1013.76 1013.88 1013.80 1013.72 1013.72 1013.72 1013.76 1013.84 1013.88 1014.16 1014.24 1014.36 1014.52 1014.68 1014.76 1014.76 1014.68
1009.68 1009.64 1009.52 1009.32 1009.36 1009.60 1009.76 1009.80 1009.92 1010.04 1010.20 1010.36 1010.52 1010.68 1010.88 1011.16 1011.44 1011.72 1011.88 1012.12 1012.40 1012.68 1012.92 1013.08 1013.12 1013.40 1013.56 1013.48 1013.40 1013.36 1013.32 1013.36 1013.36 1013.36 1013.32 1013.48 1013.60 1013.68 1013.80 1013.84 1013.88 1013.96
1009.52 1009.40 1009.24 1009.12 1009.08 1009.28 1009.48 1009.56 1009.52 1009.48 1009.68 1009.88 1010.16 1010.32 1010.52 1010.84 1011.08 1011.24 1011.48 1011.76 1012.04 1012.40 1012.68 1012.76 1012.88 1013.00 1013.00 1013.00 1012.96 1012.96 1013.00 1013.04 1013.00 1012.88 1012.76 1012.76 1012.80 1012.84 1012.96 1013.00 1013.08 1013.12
1009.52 1009.40 1009.12 1008.96 1008.84 1008.88 1009.12 1009.16 1009.20 1009.16 1009.28 1009.52 1009.84 1009.96 1010.20 1010.44 1010.56 1010.76 1011.00 1011.32 1011.64 1011.96 1012.28 1012.40 1012.56 1012.64 1012.60 1012.52 1012.52 1012.52 1012.60 1012.60 1012.56 1012.48 1012.40 1012.32 1012.28 1012.32 1012.36 1012.32 1012.28 1012.28
1009.56 1009.32 1009.00 1008.68 1008.44 1008.32 1008.40 1008.48 1008.60 1008.68 1008.88 1009.04 1009.36 1009.60 1009.84 1010.00 1010.20 1010.52 1010.72 1010.96 1011.24 1011.52 1011.76 1012.04 1012.12 1012.24 1012.28 1012.20 1012.16 1012.12 1012.16 1012.20 1012.12 1012.04 1011.96 1011.92 1011.88 1011.88 1011.80 1011.64 1011.56 1011.56
1009.64 1009.28 1009.00 1008.56 1008.12 1007.80 1007.80 1007.96 1008.00 1008.16 1008.28 1008.72 1009.00 1009.24 1009.48 1009.72 1009.96 1010.20 1010.44 1010.68 1010.88 1011.16 1011.36 1011.60 1011.72 1011.88 1011.88 1011.76 1011.72 1011.72 1011.68 1011.72 1011.68 1011.60 1011.48 1011.32 1011.24 1011.12 1011.08 1010.96 1010.84 1010.80
1009.80 1009.28 1008.72 1008.32 1007.80 1007.28 1007.16 1007.24 1007.36 1007.72 1008.12 1008.36 1008.68 1008.92 1009.16 1009.44 1009.76 1009.92 1010.16 1010.28 1010.48 1010.80 1011.08 1011.16 1011.36 1011.44 1011.56 1011.48 1011.40 1011.24 1011.08 1011.12 1011.12 1011.00 1010.84 1010.80 1010.76 1010.60 1010.44 1010.28 1010.24 1010.16
Wind_Speed
15 13 14 13 13 12 12 12 11 11 10 9 9 9 9 9 10 11 12 12 12 12 12 12 11 11 10 10 10 10 9 10 9 9 9 9 9 10 10 10 10 9
17 16 13 13 12 12 12 12 12 11 11 10 9 9 9 9 10 11 12 12 12 13 12 12 12 12 11 10 10 10 10 9 10 8 9 11 9 10 11 11 11 10
16 16 17 17 15 15 14 12 12 11 11 10 10 9 9 9 10 11 11 12 12 12 12 12 12 12 11 11 10 10 10 10 10 9 9 10 9 9 9 10 10 11
17 18 16 17 16 15 13 12 12 11 11 10 11 9 9 9 10 11 12 13 12 12 12 12 12 12 12 12 11 10 10 10 10 9 9 9 9 9 9 9 9 9
16 16 16 15 15 14 13 13 14 12 12 11 10 10 10 10 10 11 11 12 12 12 11 12 12 12 12 12 12 11 10 10 10 10 9 9 9 9 9 9 9 9
14 15 15 15 15 14 14 15 14 13 12 12 12 10 10 11 11 11 12 12 12 12 12 12 12 12 12 12 11 11 10 10 10 11 11 10 9 9 8 8 9 10
16 15 17 15 15 15 15 15 13 12 11 10 9 11 10 11 11 12 12 12 12 12 13 12 12 12 11 11 12 11 11 10 10 10 11 10 9 11 10 10 10 11
16 15 14 14 15 16 16 14 12 11 11 10 11 11 11 11 12 11 11 12 12 13 13 13 13 13 12 11 12 12 12 9 10 11 11 11 10 11 11 10 11 12
14 14 13 14 16 15 16 15 12 12 11 12 11 10 11 11 11 11 11 12 12 12 13 13 13 12 12 12 11 12 12 11 10 11 11 11 11 11 11 10 12 12
13 11 12 13 13 13 15 14 12 11 11 12 12 10 11 11 11 12 12 12 13 13 13 13 13 13 12 12 12 12 11 11 11 11 10 10 10 11 12 11 12 12
15 12 12 13 14 12 15 13 12 11 11 13 12 12 12 11 11 12 12 13 13 14 14 14 14 13 13 13 13 12 12 12 11 10 10 10 10 11 12 12 12 13
15 13 12 14 14 13 13 13 12 12 12 11 12 13 12 12 12 11 12 13 14 14 14 14 13 13 14 14 13 13 12 11 10 10 12 11 12 12 13 12 12 12
14 14 13 12 12 12 10 10 12 12 12 12 11 12 12 12 12 13 12 13 14 14 14 14 14 14 14 14 14 13 11 10 10 11 12 11 12 12 13 13 13 13
13 14 14 12 10 9 10 10 11 11 12 11 10 12 12 12 12 13 12 12 13 13 13 13 13 13 14 14 12 11 10 11 12 12 12 11 12 12 12 12 13 13
14 12 11 12 10 10 10 10 11 11 11 10 10 10 10 11 11 11 12 12 13 13 13 12 13 12 13 12 12 12 12 13 12 12 11 11 12 12 12 12 13 13
14 12 11 11 11 11 11 10 10 10 10 11 11 10 10 10 11 11 11 12 12 12 12 12 13 12 16 22 18 12 12 11 11 11 11 11 11 11 12 13 13 12
13 12 11 11 11 11 10 11 11 10 10 10 10 10 11 10 10 11 12 11 12 12 13 13 14 14 21 20 21 21 14 12 11 11 11 11 11 11 11 11 12 12
14 15 12 10 10 11 11 9 9 9 10 11 10 11 10 10 11 12 11 11 11 12 13 14 14 17 20 20 21 22 19 12 11 12 11 11 11 11 11 11 11 11
13 13 13 11 9 9 9 8 8 9 10 10 11 11 9 11 11 11 11 11 11 12 13 15 14 19 21 22 22 22 22 19 11 11 12 11 12 12 12 11 10 10
15 12 10 10 8 7 8 8 9 11 9 9 8 9 10 10 10 12 11 11 11 10 12 11 11 16 21 22 22 22 21 19 14 11 11 12 13 12 12 13 13 12
19 10 10 10 7 7 8 9 9 9 9 9 9 10 10 10 11 11 11 10 9 9 9 10 8 18 21 23 22 22 22 19 13 14 11 10 12 14 14 14 14 13
16 15 11 11 8 7 8 10 9 12 11 9 9 8 8 7 9 9 10 9 9 9 9 10 9 19 21 22 23 22 22 14 13 13 13 13 13 12 12 12 12 13
14 14 12 12 10 10 9 10 10 12 9 8 8 9 9 9 10 11 11 9 10 11 11 13 12 17 21 23 22 23 18 12 12 11 12 12 13 13 13 13 13 13
13 15 16 15 11 10 10 11 10 8 9 8 10 9 9 9 9 11 9 8 9 12 13 12 12 14 19 21 22 23 19 13 11 11 12 12 12 13 12 12 14 21
14 15 15 16 14 11 9 10 10 10 8 7 8 8 8 7 9 10 10 10 11 12 14 14 12 13 18 20 21 21 17 13 12 11 12 12 11 11 12 12 12 15
16 17 16 16 16 13 10 10 9 7 8 9 9 8 9 10 9 10 11 10 9 10 10 12 12 11 13 19 19 20 21 13 10 11 12 11 11 10 10 11 12 11
Wind_Direction
230 230 230 228 228 226 225 220 216 215 213 210 213 215 218 221 216 215 215 214 215 217 217 218 216 215 215 216 215 219 222 221 221 219 218 218 220 221 226 228 231 236
231 229 231 231 231 226 224 220 218 213 213 208 210 210 216 218 218 215 215 215 215 218 216 217 217 217 215 214 214 217 219 218 217 214 218 215 220 220 224 225 229 232
235 232 229 228 229 227 222 218 215 217 216 209 205 206 209 213 218 216 216 215 217 217 218 216 217 217 214 216 214 215 219 218 217 216 217 217 219 222 219 219 223 225
238 234 233 232 231 230 224 216 212 215 214 208 205 201 205 211 214 218 217 216 218 219 218 219 217 216 214 213 214 219 217 220 220 219 218 219 221 221 222 218 220 223
243 238 235 234 232 230 226 220 216 212 208 208 203 199 202 207 210 214 217 216 218 221 221 220 219 217 213 214 211 215 216 220 219 218 218 219 218 218 219 218 219 221
244 240 236 233 230 226 224 224 220 216 209 205 203 197 203 205 210 212 215 218 219 221 222 221 219 218 217 217 212 213 213 216 216 214 219 220 219 214 213 215 215 217
246 238 236 233 231 227 227 225 220 215 211 208 197 203 198 203 210 214 217 221 221 222 223 220 220 220 217 215 215 214 214 216 215 215 218 221 220 219 212 217 217 221
254 249 241 233 228 226 226 225 216 210 206 201 203 206 200 204 209 214 217 222 221 223 224 223 223 222 219 216 215 216 216 214 217 219 223 224 222 221 215 221 221 219
257 251 242 237 232 230 226 221 210 204 198 198 201 202 203 206 208 212 215 220 223 223 225 226 225 224 221 219 219 218 217 216 217 219 222 223 222 221 219 220 218 214
260 245 239 234 230 226 225 218 211 203 196 199 199 198 199 202 205 209 213 217 221 223 224 226 226 225 223 222 222 221 220 220 221 221 224 227 227 229 225 220 217 214
274 251 240 236 232 227 224 216 208 202 199 202 197 199 199 198 202 206 211 214 218 222 224 225 226 226 226 224 223 221 221 222 222 224 227 231 233 231 225 221 216 214
285 262 243 238 235 231 221 212 208 204 200 201 197 199 197 198 199 202 206 213 218 222 224 227 227 227 226 225 222 221 222 222 224 225 235 233 233 232 229 222 219 215
292 277 257 241 234 231 220 207 207 206 201 200 195 197 197 197 200 204 207 212 218 221 224 225 226 226 226 224 222 221 222 221 225 233 237 236 231 226 224 226 223 220
292 286 276 255 235 223 216 208 203 205 204 199 192 197 201 201 201 203 209 214 218 221 224 225 225 225 223 221 220 219 217 228 233 234 231 231 231 227 225 223 222 219
300 286 277 264 242 226 218 210 205 203 202 198 196 199 200 205 204 206 209 214 218 221 224 224 226 223 229 222 218 219 226 228 229 228 228 231 231 231 229 226 223 220
301 291 278 270 252 234 222 212 206 203 198 200 201 199 198 202 203 208 211 214 218 222 223 225 232 230 227 223 220 221 220 225 223 227 231 231 231 231 229 226 223 221
303 293 284 271 253 241 229 214 209 202 200 198 199 198 199 199 202 208 213 212 217 221 223 228 232 230 226 223 225 222 221 215 219 225 227 228 229 229 230 225 224 223
313 308 291 271 263 247 230 215 204 201 200 200 195 198 199 198 204 209 209 213 215 218 224 230 230 225 225 229 230 230 229 218 207 215 217 222 225 228 229 230 230 230
308 306 299 282 258 245 234 209 201 199 200 197 197 197 193 199 206 206 209 211 213 215 223 229 230 230 235 233 234 235 236 237 228 202 210 210 216 222 227 230 232 231
312 307 300 289 265 245 225 216 203 210 199 198 193 191 196 201 203 209 207 206 209 208 220 223 226 231 235 237 238 239 240 240 241 230 205 211 213 214 221 230 232 232
317 304 303 299 276 251 231 221 207 206 198 198 195 197 195 197 204 208 209 202 200 203 216 223 218 228 233 239 242 244 245 246 244 243 236 213 211 215 219 227 231 229
314 316 309 307 287 246 239 230 216 211 204 198 196 200 198 199 212 208 206 197 202 203 210 225 224 231 235 240 243 245 247 247 245 243 239 236 232 223 220 223 225 226
319 319 314 311 295 286 246 244 228 223 209 193 193 198 196 203 207 217 218 207 206 212 218 231 236 234 237 242 246 248 247 244 240 239 239 238 234 233 234 234 232 228
324 320 317 312 299 283 249 237 225 218 204 191 195 194 202 205 208 218 210 204 203 217 219 227 234 234 236 242 247 249 246 241 237 235 235 234 234 232 232 233 231 230
320 317 314 310 300 281 245 230 220 214 200 184 193 195 202 195 208 213 218 220 220 222 224 227 234 235 238 245 247 247 243 236 232 231 231 229 228 227 225 230 231 230
317 313 309 306 298 278 249 232 226 197 187 189 194 194 205 217 210 218 216 220 219 218 221 227 232 235 237 243 247 245 238 229 227 225 224 226 226 228 226 227 230 230